• Em Portugal
  • Lista de países
  • Para 7 dias
  • Temperatura da água
  • Mapas de satélite
  • Mapa do tempo
  • Widgets de tempo
  • user-avatar
    Iniciar Sessão

    Previsão horária em Buenos Aires

    Hoje, 22 Abril, Domingo

    Tempo Temperatura Precipitação Vento Pressão Humidade
    00:00 +22°C° 0 mm 1 m/s 757 mmHg 91%
    01:00 +22°C° 0 mm 1 m/s 757 mmHg 91%
    02:00 +22°C° 0 mm 1 m/s 757 mmHg 91%
    03:00 +21°C° 0 mm 1 m/s 757 mmHg 91%
    04:00 +21°C° 0 mm 1 m/s 757 mmHg 92%
    05:00 +21°C° 0 mm 1 m/s 757 mmHg 92%
    06:00 +22°C° 0 mm 1 m/s 757 mmHg 90%
    07:00 +22°C° 0 mm 1 m/s 757 mmHg 88%
    08:00 +23°C° 0 mm 1 m/s 758 mmHg 86%
    09:00 +24°C° 0 mm 1 m/s 758 mmHg 78%
    10:00 +26°C° 0 mm 1 m/s 758 mmHg 71%
    11:00 +28°C° 0 mm 1 m/s 758 mmHg 64%
    12:00 +29°C° 0 mm 1 m/s 757 mmHg 61%
    13:00 +29°C° 0 mm 1 m/s 757 mmHg 58%
    14:00 +30°C° 0 mm 1 m/s 757 mmHg 55%
    15:00 +29°C° 0 mm 1 m/s 757 mmHg 59%
    16:00 +28°C° 0 mm 1 m/s 757 mmHg 63%
    17:00 +27°C° 0 mm 1 m/s 757 mmHg 67%
    18:00 +26°C° 0,1 mm 1 m/s 758 mmHg 70%
    19:00 +26°C° 0,1 mm 1 m/s 758 mmHg 74%
    20:00 +25°C° 0,1 mm 1 m/s 758 mmHg 77%
    21:00 +24°C° 0,1 mm 1 m/s 759 mmHg 79%
    22:00 +24°C° 0,1 mm 2 m/s 759 mmHg 80%
    23:00 +24°C° 0,1 mm 2 m/s 759 mmHg 82%

    Amanhã, 23 Abril, Segunda-feira

    Tempo Temperatura Precipitação Vento Pressão Humidade
    00:00 +23°C° 0 mm 2 m/s 759 mmHg 84%
    01:00 +23°C° 0 mm 2 m/s 760 mmHg 85%
    02:00 +23°C° 0 mm 2 m/s 760 mmHg 87%
    03:00 +21°C° 0 mm 2 m/s 760 mmHg 88%
    04:00 +21°C° 0 mm 2 m/s 760 mmHg 88%
    05:00 +21°C° 0 mm 2 m/s 760 mmHg 89%
    06:00 +21°C° 0,1 mm 2 m/s 760 mmHg 87%
    07:00 +21°C° 0,1 mm 3 m/s 761 mmHg 86%
    08:00 +22°C° 0,1 mm 3 m/s 761 mmHg 84%
    09:00 +24°C° 0 mm 3 m/s 761 mmHg 79%
    10:00 +25°C° 0 mm 4 m/s 761 mmHg 74%
    11:00 +26°C° 0 mm 4 m/s 762 mmHg 69%
    12:00 +26°C° 0 mm 4 m/s 761 mmHg 69%
    13:00 +27°C° 0 mm 4 m/s 761 mmHg 69%
    14:00 +27°C° 0 mm 4 m/s 761 mmHg 68%
    15:00 +26°C° 0 mm 5 m/s 761 mmHg 71%
    16:00 +25°C° 0 mm 5 m/s 761 mmHg 74%
    17:00 +25°C° 0 mm 5 m/s 761 mmHg 77%
    18:00 +23°C° 0 mm 5 m/s 762 mmHg 78%
    19:00 +23°C° 0 mm 5 m/s 762 mmHg 78%
    20:00 +22°C° 0 mm 6 m/s 762 mmHg 78%
    21:00 +22°C° 0 mm 5 m/s 763 mmHg 79%
    22:00 +22°C° 0 mm 5 m/s 763 mmHg 79%
    23:00 +22°C° 0 mm 5 m/s 763 mmHg 80%

    Depois de amanhã, 24 Abril, Terça-feira

    Tempo Temperatura Precipitação Vento Pressão Humidade
    00:00 +22°C° 0 mm 5 m/s 763 mmHg 81%
    01:00 +22°C° 0 mm 5 m/s 762 mmHg 82%
    02:00 +22°C° 0 mm 5 m/s 762 mmHg 83%
    03:00 +21°C° 0,1 mm 5 m/s 762 mmHg 84%
    04:00 +21°C° 0,1 mm 5 m/s 762 mmHg 86%
    05:00 +21°C° 0,1 mm 4 m/s 762 mmHg 88%
    06:00 +21°C° 1,3 mm 5 m/s 762 mmHg 89%
    07:00 +21°C° 1,3 mm 5 m/s 762 mmHg 90%
    08:00 +22°C° 1,3 mm 5 m/s 762 mmHg 91%
    09:00 +22°C° 0,5 mm 5 m/s 762 mmHg 89%
    10:00 +23°C° 0,5 mm 5 m/s 762 mmHg 87%
    11:00 +25°C° 0,5 mm 5 m/s 762 mmHg 85%
    12:00 +25°C° 0,5 mm 4 m/s 761 mmHg 84%
    13:00 +26°C° 0,5 mm 4 m/s 761 mmHg 82%
    14:00 +26°C° 0,5 mm 4 m/s 760 mmHg 80%
    15:00 +26°C° 2,2 mm 4 m/s 760 mmHg 81%
    16:00 +25°C° 2,2 mm 4 m/s 760 mmHg 83%
    17:00 +25°C° 2,2 mm 4 m/s 760 mmHg 84%
    18:00 +25°C° 0,7 mm 4 m/s 760 mmHg 86%
    19:00 +23°C° 0,7 mm 4 m/s 760 mmHg 88%
    20:00 +23°C° 0,7 mm 5 m/s 760 mmHg 90%
    21:00 +23°C° 2,5 mm 4 m/s 760 mmHg 90%
    22:00 +23°C° 2,5 mm 4 m/s 760 mmHg 91%
    23:00 +23°C° 2,5 mm 4 m/s 760 mmHg 92%

    25 Abril, Quarta-feira

    Tempo Temperatura Precipitação Vento Pressão Humidade
    00:00 +22°C° 1,9 mm 4 m/s 760 mmHg 92%
    01:00 +22°C° 1,9 mm 4 m/s 760 mmHg 92%
    02:00 +22°C° 1,9 mm 4 m/s 760 mmHg 92%
    03:00 +22°C° 1,3 mm 3 m/s 760 mmHg 93%
    04:00 +22°C° 1,3 mm 3 m/s 760 mmHg 93%
    05:00 +22°C° 1,3 mm 3 m/s 760 mmHg 94%
    06:00 +23°C° 0,5 mm 2 m/s 760 mmHg 93%
    07:00 +23°C° 0,5 mm 2 m/s 760 mmHg 92%
    08:00 +24°C° 0,5 mm 2 m/s 761 mmHg 92%
    09:00 +25°C° 0 mm 2 m/s 761 mmHg 88%
    10:00 +25°C° 0 mm 2 m/s 761 mmHg 85%
    11:00 +26°C° 0 mm 2 m/s 761 mmHg 81%
    12:00 +27°C° 0,1 mm 2 m/s 760 mmHg 78%
    13:00 +27°C° 0,1 mm 1 m/s 760 mmHg 76%
    14:00 +28°C° 0,1 mm 1 m/s 759 mmHg 73%
    15:00 +27°C° 0 mm 1 m/s 759 mmHg 75%
    16:00 +26°C° 0 mm 1 m/s 759 mmHg 77%
    17:00 +26°C° 0 mm 1 m/s 759 mmHg 79%
    18:00 +25°C° 0 mm 2 m/s 760 mmHg 82%
    19:00 +25°C° 0 mm 2 m/s 760 mmHg 84%
    20:00 +24°C° 0 mm 3 m/s 760 mmHg 87%
    21:00 +24°C° 0 mm 3 m/s 760 mmHg 88%
    22:00 +24°C° 0 mm 3 m/s 760 mmHg 90%
    23:00 +23°C° 0 mm 4 m/s 760 mmHg 91%

    26 Abril, Quinta-feira

    Tempo Temperatura Precipitação Vento Pressão Humidade
    00:00 +23°C° 0,1 mm 4 m/s 760 mmHg 92%
    01:00 +23°C° 0,1 mm 4 m/s 759 mmHg 92%
    02:00 +23°C° 0,1 mm 4 m/s 759 mmHg 93%
    03:00 +23°C° 0,3 mm 4 m/s 759 mmHg 93%
    04:00 +23°C° 0,3 mm 4 m/s 758 mmHg 93%
    05:00 +24°C° 0,3 mm 3 m/s 758 mmHg 93%
    06:00 +23°C° 0 mm 4 m/s 758 mmHg 91%
    07:00 +25°C° 0 mm 4 m/s 758 mmHg 88%
    08:00 +25°C° 0 mm 5 m/s 758 mmHg 86%
    09:00 +27°C° 0 mm 5 m/s 758 mmHg 78%
    10:00 +28°C° 0 mm 6 m/s 757 mmHg 70%
    11:00 +30°C° 0 mm 6 m/s 757 mmHg 63%
    12:00 +30°C° 0 mm 6 m/s 756 mmHg 61%
    13:00 +30°C° 0 mm 6 m/s 755 mmHg 60%
    14:00 +32°C° 0 mm 6 m/s 754 mmHg 58%
    15:00 +30°C° 0 mm 5 m/s 754 mmHg 61%
    16:00 +29°C° 0 mm 5 m/s 754 mmHg 65%
    17:00 +29°C° 0 mm 4 m/s 754 mmHg 68%
    18:00 +28°C° 0 mm 4 m/s 754 mmHg 69%
    19:00 +28°C° 0 mm 4 m/s 754 mmHg 70%
    20:00 +27°C° 0 mm 5 m/s 754 mmHg 71%
    21:00 +27°C° 0 mm 5 m/s 754 mmHg 71%
    22:00 +27°C° 0 mm 5 m/s 754 mmHg 71%
    23:00 +26°C° 0 mm 6 m/s 754 mmHg 72%

    27 Abril, Sexta-feira

    Tempo Temperatura Precipitação Vento Pressão Humidade
    00:00 +26°C° 0,5 mm 6 m/s 754 mmHg 74%
    01:00 +25°C° 0,5 mm 5 m/s 754 mmHg 77%
    02:00 +25°C° 0,5 mm 5 m/s 754 mmHg 80%
    03:00 +23°C° 3,1 mm 4 m/s 754 mmHg 83%
    04:00 +23°C° 3,1 mm 4 m/s 755 mmHg 85%
    05:00 +22°C° 3,1 mm 3 m/s 755 mmHg 88%
    06:00 +22°C° 2,6 mm 3 m/s 756 mmHg 88%
    07:00 +22°C° 2,6 mm 3 m/s 757 mmHg 88%
    08:00 +22°C° 2,6 mm 4 m/s 758 mmHg 88%
    09:00 +21°C° 0,4 mm 4 m/s 759 mmHg 80%
    10:00 +21°C° 0,4 mm 5 m/s 759 mmHg 73%
    11:00 +20°C° 0,4 mm 6 m/s 760 mmHg 65%
    12:00 +20°C° 0,1 mm 6 m/s 759 mmHg 65%
    13:00 +21°C° 0,1 mm 5 m/s 759 mmHg 64%
    14:00 +21°C° 0,1 mm 4 m/s 759 mmHg 63%
    15:00 +21°C° 0,1 mm 4 m/s 760 mmHg 65%
    16:00 +20°C° 0,1 mm 4 m/s 760 mmHg 67%
    17:00 +20°C° 0,1 mm 4 m/s 760 mmHg 69%
    18:00 +20°C° 0 mm 4 m/s 761 mmHg 71%
    19:00 +19°C° 0 mm 5 m/s 761 mmHg 74%
    20:00 +19°C° 0 mm 5 m/s 762 mmHg 76%
    21:00 +19°C° 0 mm 5 m/s 762 mmHg 76%
    22:00 +17°C° 0 mm 6 m/s 762 mmHg 77%
    23:00 +17°C° 0 mm 6 m/s 763 mmHg 77%
    Mostrar mais